[[{"header":{"parameterUnit":"m.s-1","parameterCategory":2,"la1":30.2991,"la2":30.254,"lo1":-89.0895,"lo2":-89.0444,"dy":0.0017,"dx":0.0017,"nx":28,"ny":28,"refTime":"2024-05-15T21:00:00:Z","depth":"0","parameterNumber":2,"parameterNumberName":"U-component_of_CURRENTS"},"data":[0,0,0,0,0,0,0,0,0,0,0,0,0,0,0,0,0,0,0,0,0,0,0,0,0,0,0,0,0,0,0,0,0,0,0,0,0,0,0,0,0,0,0,0,0,0,0,0,0,0,0,0,0,0,0,0,0,0,0.0925,0.0925,0,0.0939,0.0939,0.094,0.0935,0.0935,0.0935,0.0934,0.0962,0.0963,0.0964,0,0,0,0,0,0,0,0,0,0,0,0,0,0.0962,0.0961,0.0925,0.0925,0.0926,0.0939,0.094,0.094,0.0935,0.0935,0.0934,0.0934,0.0961,0.0962,0.0964,0,0,0,0,0,0,0,0,0,0,0,0,0,0.0958,0.096,0.0925,0.0925,0.0925,0.0939,0.094,0.094,0.0935,0.0935,0.0934,0.0934,0.0961,0.0962,0.0964,0.0983,0,0,0.0968,0.0969,0,0,0,0,0,0,0,0,0.0958,0.0956,0.0925,0.0925,0.0925,0.0935,0.0962,0.0955,0.0935,0.0931,0.0934,0.0934,0.0954,0.0956,0.096,0.0984,0.0985,0.0969,0.097,0.097,0.0971,0,0,0,0,0,0,0,0.0958,0.0956,0.0931,0.0925,0.0925,0.0947,0.0945,0.0961,0.0946,0.0932,0.0931,0.0933,0.0954,0.0958,0.096,0.0985,0.0969,0.097,0.0971,0.0971,0.1042,0.1043,0,0,0,0,0,0,0.0953,0.0956,0.093,0.0931,0.0941,0.0947,0.0945,0.0932,0.0945,0.0946,0.0933,0.0933,0.0956,0.0959,0.0961,0.1001,0.097,0.0972,0.0973,0.1041,0.1043,0.1044,0,0,0,0,0,0,0.0953,0.095,0.093,0.0945,0.0944,0.0946,0.0932,0.0933,0.0938,0.0946,0.0948,0.0938,0.0956,0.0959,0.0979,0.1002,0.0972,0.0974,0.104,0.1042,0.1043,0.1071,0,0,0,0,0,0,0.0954,0.095,0.0946,0.0944,0.0943,0.0946,0.0933,0.0933,0.094,0.0939,0.0951,0.0953,0.0956,0.0976,0.098,0.1003,0.0975,0.1039,0.1041,0.1043,0.1068,0.1073,0.1077,0,0,0,0,0,0.0955,0.0957,0.0946,0.0943,0.0935,0.0947,0.0949,0.0949,0.094,0.0951,0.0954,0.0953,0.0991,0.0978,0.0983,0.1007,0.1038,0.104,0.1043,0.1067,0.1072,0.1076,0,0,0,0,0,0,0.0975,0.0956,0.0944,0.094,0.0944,0.0946,0.0961,0.0953,0.0963,0.0962,0.0963,0.0966,0.0994,0.0996,0.0982,0.1033,0.1016,0.1019,0.1033,0.1038,0.1042,0.1068,0.0976,0,0,0,0,0,0.0975,0.097,0.0959,0.0959,0.0962,0.096,0.0966,0.0961,0.0967,0.097,0.0977,0.0988,0.1007,0.1017,0.1033,0.1059,0.1114,0.1078,0.1082,0.1086,0.111,0.1185,0.1198,0.1051,0.1051,0.1051,0,0,0.098,0.0975,0.0968,0.0964,0.0968,0.0985,0.0963,0.0974,0.0989,0.0973,0.1001,0.1003,0.1017,0.1046,0.106,0.1051,0.1166,0.1088,0.1091,0.1115,0.1189,0.1203,0.1216,0.1052,0.1052,0.1052,0,0,0.1011,0.0986,0.1001,0.1005,0.1012,0.1008,0.101,0.1011,0.1013,0.1032,0.1028,0.1046,0.1068,0.1086,0.1097,0.1135,0.1184,0.1136,0.118,0.1251,0.1264,0.1276,0.1408,0.1432,0.1138,0.1138,0.1138,0,0.1021,0.1033,0.1011,0.1036,0.1046,0.102,0.1046,0.1047,0.1053,0.1073,0.1046,0.1101,0.1093,0.1153,0.1154,0.1147,0.1216,0.1157,0.1258,0.1271,0.1283,0.1415,0.144,0.114,0.1139,0.1139,0.1139,0,0.1066,0.1079,0.1093,0.1107,0.1114,0.1131,0.1123,0.1136,0.1126,0.1133,0.118,0.1172,0.1215,0.1202,0.1184,0.1266,0.1301,0.1254,0.1247,0.13,0.1435,0.1462,0.1142,0.1141,0.1141,0.114,0,0,0.1084,0.1116,0.1125,0.115,0.115,0.1167,0.119,0.1219,0.1267,0.1251,0.1327,0.1314,0.1317,0.133,0.1315,0.1353,0.1486,0.1338,0.1341,0.1476,0.1707,0.1835,0.1876,0.1455,0.1458,0.1461,0.1784,0,0.1132,0.1197,0.1191,0.1249,0.1279,0.1264,0.1301,0.132,0.1336,0.1403,0.1392,0.1455,0.1365,0.1402,0.1421,0.1471,0.1551,0.1408,0.1632,0.1641,0.1751,0.1908,0.1812,0.2099,0.181,0.1814,0.1817,0,0.1185,0.1222,0.1291,0.1338,0.1351,0.1381,0.1447,0.1476,0.1542,0.1565,0.1606,0.1611,0.1675,0.1585,0.1716,0.1633,0.1686,0.1713,0.1725,0.1854,0.1817,0.1991,0.2158,0.1984,0.1858,0.1855,0.1852,0,0.1238,0.1292,0.1354,0.1367,0.1416,0.1453,0.148,0.1539,0.1595,0.1693,0.177,0.1812,0.189,0.1917,0.196,0.1857,0.2136,0.2002,0.2186,0.2197,0.2169,0.2172,0.2197,0.2135,0.2134,0.2133,0.2132,0,0.1298,0.1348,0.1391,0.1429,0.1511,0.1521,0.1622,0.1662,0.1757,0.1866,0.1871,0.199,0.1974,0.2104,0.2087,0.2275,0.2257,0.227,0.2305,0.2182,0.2183,0.207,0.1995,0.2145,0.2142,0.214,0.2138,0,0.1367,0.1388,0.1466,0.1526,0.1546,0.1613,0.1697,0.1779,0.1867,0.2022,0.2071,0.2189,0.2376,0.2412,0.2532,0.2507,0.2556,0.2689,0.259,0.2608,0.2568,0.2501,0.2613,0.2536,0.2943,0.2948,0.2953,0,0.1421,0.1471,0.1543,0.1584,0.1617,0.1699,0.1762,0.1834,0.1929,0.2148,0.2247,0.2479,0.2626,0.2903,0.2947,0.3071,0.2824,0.3036,0.2799,0.2637,0.2585,0.242,0.2329,0.2786,0.2789,0.2791,0.2793,0,0.1523,0.1545,0.1596,0.1669,0.1735,0.18,0.1898,0.1975,0.2097,0.2251,0.2474,0.2613,0.2935,0.3028,0.3232,0.325,0.2862,0.3092,0.2912,0.2505,0.2338,0.2255,0.2538,0.2813,0.2811,0.281,0.2809,0.2808,0.1598,0.1636,0.1681,0.1743,0.1808,0.1865,0.1904,0.2029,0.2171,0.236,0.2552,0.2737,0.2916,0.3197,0.3229,0.3173,0.3123,0.297,0.2927,0.2793,0.2634,0.3034,0.3341,0.3342,0.3343,0.3343,0.3344,0,0.1667,0.1677,0.1745,0.1785,0.1827,0.1861,0.1964,0.1994,0.2132,0.2355,0.2539,0.2728,0.2848,0.2939,0.3024,0.2936,0.273,0.2812,0.2445,0.2378,0.2723,0.2621,0.2799,0.28,0.28,0.28,0.28,0.28,0.1696,0.1733,0.1737,0.1772,0.1799,0.1815,0.1848,0.1924,0.2046,0.2222,0.2348,0.2495,0.2632,0.2712,0.2634,0.2584,0.2291,0.2291,0.2232,0.2324,0.2327,0.233,0.2208,0.2297,0.2297,0.1719,0.1715,0.1712]},{"header":{"parameterUnit":"m.s-1","parameterCategory":2,"la1":30.2991,"la2":30.254,"lo1":-89.0895,"lo2":-89.0444,"dy":0.0017,"dx":0.0017,"nx":28,"ny":28,"refTime":"2024-05-15T21:00:00:Z","depth":"0","parameterNumber":3,"parameterNumberName":"V-component_of_CURRENTS"},"data":[0,0,0,0,0,0,0,0,0,0,0,0,0,0,0,0,0,0,0,0,0,0,0,0,0,0,0,0,0,0,0,0,0,0,0,0,0,0,0,0,0,0,0,0,0,0,0,0,0,0,0,0,0,0,0,0,0,0,-0.1252,-0.1253,0,-0.1366,-0.1367,-0.1368,-0.1415,-0.1415,-0.1415,-0.1416,-0.1441,-0.1442,-0.1442,0,0,0,0,0,0,0,0,0,0,0,0,0,-0.1053,-0.1056,-0.1251,-0.1253,-0.1255,-0.1366,-0.1367,-0.1368,-0.1415,-0.1415,-0.1415,-0.1416,-0.1441,-0.1442,-0.1442,0,0,0,0,0,0,0,0,0,0,0,0,0,-0.1145,-0.1057,-0.1251,-0.1296,-0.1301,-0.1366,-0.1367,-0.1368,-0.1415,-0.1415,-0.1415,-0.1416,-0.1441,-0.1442,-0.1443,-0.1441,0,0,-0.1445,-0.1445,0,0,0,0,0,0,0,0,-0.114,-0.1152,-0.1287,-0.1293,-0.1299,-0.1381,-0.1307,-0.139,-0.1415,-0.1366,-0.1416,-0.1416,-0.1416,-0.1419,-0.1434,-0.1442,-0.1443,-0.1445,-0.1445,-0.1446,-0.1446,0,0,0,0,0,0,0,-0.1134,-0.1147,-0.1292,-0.1289,-0.1297,-0.1303,-0.1316,-0.1322,-0.1382,-0.1371,-0.1376,-0.1396,-0.1418,-0.1433,-0.1435,-0.1443,-0.1445,-0.1446,-0.1446,-0.1446,-0.143,-0.1429,0,0,0,0,0,0,-0.1131,-0.1142,-0.1288,-0.1296,-0.1224,-0.1307,-0.1321,-0.135,-0.1384,-0.1392,-0.1396,-0.1398,-0.1432,-0.1434,-0.1436,-0.1415,-0.1446,-0.1446,-0.1447,-0.1431,-0.143,-0.1429,0,0,0,0,0,0,-0.1126,-0.1143,-0.1284,-0.1224,-0.1243,-0.1311,-0.1342,-0.1352,-0.1365,-0.1406,-0.1411,-0.1398,-0.1432,-0.1435,-0.1437,-0.1417,-0.1447,-0.1447,-0.1432,-0.1431,-0.1429,-0.1387,0,0,0,0,0,0,-0.112,-0.1141,-0.1144,-0.1225,-0.1247,-0.1306,-0.1343,-0.1355,-0.138,-0.1384,-0.1409,-0.1413,-0.1432,-0.1436,-0.1438,-0.1419,-0.1448,-0.1433,-0.1431,-0.143,-0.139,-0.1385,-0.138,0,0,0,0,0,-0.1113,-0.1116,-0.1144,-0.1161,-0.1256,-0.1306,-0.1316,-0.1361,-0.1379,-0.1374,-0.1399,-0.1411,-0.1427,-0.1436,-0.1438,-0.1419,-0.1434,-0.1432,-0.143,-0.1392,-0.1386,-0.1381,0,0,0,0,0,0,-0.1029,-0.1124,-0.1156,-0.1188,-0.1238,-0.1315,-0.1315,-0.1354,-0.1372,-0.1365,-0.1406,-0.141,-0.1402,-0.1416,-0.1425,-0.1409,-0.1429,-0.1428,-0.14,-0.1394,-0.1389,-0.137,-0.1449,0,0,0,0,0,-0.1016,-0.1042,-0.1131,-0.1151,-0.1173,-0.1242,-0.1264,-0.1295,-0.1334,-0.1343,-0.1373,-0.1389,-0.1397,-0.14,-0.1407,-0.1401,-0.14,-0.1387,-0.1383,-0.1379,-0.1363,-0.1361,-0.1355,-0.1422,-0.1422,-0.1422,0,0,-0.099,-0.1044,-0.1059,-0.1134,-0.1173,-0.1192,-0.1254,-0.1276,-0.1288,-0.1339,-0.1347,-0.137,-0.139,-0.1385,-0.1382,-0.1394,-0.1356,-0.1376,-0.1373,-0.1359,-0.1359,-0.1352,-0.1346,-0.1421,-0.1421,-0.1422,0,0,-0.0939,-0.0997,-0.0995,-0.1034,-0.1092,-0.1138,-0.1143,-0.1214,-0.1237,-0.1256,-0.1292,-0.1306,-0.1326,-0.1342,-0.135,-0.1321,-0.1329,-0.132,-0.1283,-0.1282,-0.1276,-0.1271,-0.1249,-0.1242,-0.132,-0.132,-0.132,0,-0.09,-0.0923,-0.0997,-0.1004,-0.1028,-0.111,-0.1105,-0.1143,-0.1205,-0.1216,-0.1243,-0.1277,-0.1304,-0.1297,-0.1296,-0.1309,-0.1303,-0.1306,-0.1275,-0.1271,-0.1266,-0.1245,-0.1238,-0.1318,-0.1318,-0.1318,-0.1318,0,-0.0854,-0.0867,-0.0866,-0.091,-0.094,-0.0948,-0.1021,-0.1042,-0.1087,-0.113,-0.1142,-0.1189,-0.1208,-0.1223,-0.1256,-0.1236,-0.1239,-0.1269,-0.129,-0.1257,-0.1236,-0.123,-0.1314,-0.1315,-0.1316,-0.1317,0,0,-0.078,-0.0825,-0.0823,-0.0819,-0.0891,-0.0906,-0.0927,-0.0968,-0.0962,-0.1029,-0.1024,-0.1074,-0.111,-0.1121,-0.1164,-0.1176,-0.1153,-0.1209,-0.121,-0.1186,-0.1129,-0.1048,-0.1034,-0.1181,-0.118,-0.1179,-0.1122,0,-0.0718,-0.0697,-0.0748,-0.0723,-0.0718,-0.0798,-0.0806,-0.0851,-0.0897,-0.091,-0.0977,-0.0978,-0.1068,-0.1064,-0.1098,-0.1137,-0.1137,-0.1165,-0.1164,-0.1163,-0.1096,-0.1024,-0.0921,-0.0854,-0.1116,-0.1115,-0.1114,0,-0.065,-0.065,-0.0609,-0.0623,-0.0628,-0.0624,-0.0647,-0.0665,-0.0717,-0.0748,-0.0791,-0.0845,-0.0883,-0.0953,-0.1011,-0.1025,-0.1066,-0.1102,-0.1101,-0.1034,-0.1071,-0.0932,-0.0833,-0.099,-0.1105,-0.1105,-0.1106,0,-0.0543,-0.0549,-0.0507,-0.0516,-0.0547,-0.0535,-0.0553,-0.06,-0.0588,-0.0631,-0.0609,-0.0701,-0.0696,-0.0793,-0.0895,-0.0947,-0.0935,-0.1017,-0.0976,-0.0971,-0.0884,-0.0872,-0.0933,-0.1027,-0.1027,-0.1028,-0.1028,0,-0.0454,-0.0417,-0.0445,-0.0418,-0.0358,-0.0425,-0.0365,-0.0401,-0.0415,-0.0357,-0.0501,-0.0452,-0.0653,-0.069,-0.0822,-0.0855,-0.0877,-0.0935,-0.094,-0.0864,-0.0851,-0.0986,-0.1084,-0.1025,-0.1026,-0.1026,-0.1027,0,-0.0323,-0.0348,-0.029,-0.0301,-0.0295,-0.0246,-0.0231,-0.0186,-0.0222,-0.0146,-0.0142,-0.0236,-0.028,-0.046,-0.058,-0.0703,-0.0816,-0.0784,-0.0668,-0.066,-0.079,-0.0887,-0.0886,-0.0933,-0.0738,-0.0735,-0.0733,0,-0.0249,-0.0207,-0.0179,-0.0133,-0.0125,-0.0075,-0.003,-0.007,-0.0018,0.0013,0.0079,0.0047,0.0067,-0.0091,-0.0308,-0.0478,-0.0665,-0.0509,-0.0597,-0.0744,-0.0859,-0.0933,-0.0981,-0.0468,-0.0464,-0.0461,-0.0458,0,-0.0109,-0.0098,-0.0053,0.0035,0.0098,0.0165,0.0223,0.0289,0.0276,0.0356,0.0462,0.0487,0.035,0.0225,-0.0024,-0.0164,-0.0568,-0.0443,-0.063,-0.0659,-0.0706,-0.077,-0.0566,-0.0428,-0.0431,-0.0433,-0.0435,-0.0436,0.0004,0.0065,0.0116,0.0208,0.0287,0.039,0.0471,0.0548,0.067,0.0808,0.0801,0.0914,0.0669,0.0352,0.0126,-0.0251,-0.0327,-0.0394,-0.0499,-0.0561,-0.0603,-0.0309,-0.0164,-0.0165,-0.0166,-0.0167,-0.0168,0,0.0123,0.0176,0.0274,0.0378,0.0495,0.0496,0.063,0.0723,0.0905,0.1077,0.1206,0.1215,0.0926,0.0531,0.0018,-0.0276,-0.0423,-0.0466,-0.0591,-0.0642,-0.0397,-0.0386,-0.0237,-0.0237,-0.0237,-0.0237,-0.0237,-0.0237,0.0188,0.0294,0.0333,0.0532,0.0616,0.0764,0.0851,0.1008,0.1149,0.1409,0.1541,0.1598,0.128,0.034,-0.0337,-0.0493,-0.0757,-0.0734,-0.0935,-0.0833,-0.0837,-0.0841,-0.0857,-0.0809,-0.081,-0.1113,-0.1116,-0.1119]}],[{"header":{"parameterUnit":"m.s-1","parameterCategory":2,"la1":30.2991,"la2":30.254,"lo1":-89.0895,"lo2":-89.0444,"dy":0.0017,"dx":0.0017,"nx":28,"ny":28,"refTime":"2024-05-15T21:00:00:Z","depth":"2","parameterNumber":2,"parameterNumberName":"U-component_of_CURRENTS"},"data":[0,0,0,0,0,0,0,0,0,0,0,0,0,0,0,0,0,0,0,0,0,0,0,0,0,0,0,0,0,0,0,0,0,0,0,0,0,0,0,0,0,0,0,0,0,0,0,0,0,0,0,0,0,0,0,0,0,0,0.2746,0.2746,0,0.275,0.275,0.2749,0.2768,0.2769,0.2769,0.277,0.2682,0.268,0.2677,0,0,0,0,0,0,0,0,0,0,0,0,0,0.2672,0.2673,0.2746,0.2746,0.2746,0.275,0.275,0.2749,0.2768,0.2769,0.2769,0.277,0.2683,0.268,0.2676,0,0,0,0,0,0,0,0,0,0,0,0,0,0.269,0.2674,0.2746,0.2758,0.2759,0.275,0.275,0.2749,0.2768,0.2769,0.277,0.2771,0.2685,0.268,0.2676,0.2628,0,0,0.2662,0.266,0,0,0,0,0,0,0,0,0.2689,0.2692,0.2756,0.2757,0.2759,0.2762,0.2692,0.2705,0.2767,0.2761,0.277,0.2771,0.2701,0.2696,0.2692,0.2624,0.262,0.2662,0.2659,0.2657,0.2656,0,0,0,0,0,0,0,0.2688,0.2692,0.2744,0.2756,0.2758,0.2735,0.2739,0.2694,0.2722,0.2762,0.2764,0.2769,0.2701,0.2696,0.2689,0.2618,0.2662,0.2658,0.2655,0.2653,0.2645,0.2647,0,0,0,0,0,0,0.2697,0.2691,0.2744,0.2745,0.2729,0.2736,0.2741,0.2757,0.2724,0.2722,0.2768,0.277,0.2703,0.2695,0.2686,0.2691,0.2657,0.2653,0.2651,0.2642,0.2645,0.2648,0,0,0,0,0,0,0.2695,0.2702,0.2744,0.2719,0.2724,0.2737,0.2755,0.2757,0.2762,0.273,0.2726,0.2773,0.2703,0.2693,0.2681,0.2685,0.2651,0.2647,0.264,0.2643,0.2647,0.2659,0,0,0,0,0,0,0.2693,0.2701,0.2694,0.2721,0.2726,0.2736,0.2755,0.2756,0.2764,0.2767,0.2732,0.2725,0.2703,0.2688,0.2676,0.2679,0.2644,0.2636,0.2641,0.2646,0.2655,0.2663,0.2669,0,0,0,0,0,0.2691,0.2678,0.2694,0.2699,0.2724,0.2735,0.2735,0.2745,0.2763,0.2756,0.2763,0.2727,0.271,0.2685,0.2671,0.2672,0.2634,0.264,0.2645,0.2653,0.2661,0.2669,0,0,0,0,0,0,0.2623,0.2679,0.2698,0.2698,0.2717,0.274,0.2722,0.2747,0.2746,0.2745,0.2734,0.2726,0.2732,0.2707,0.2681,0.2695,0.2675,0.2677,0.2685,0.2693,0.2699,0.264,0.264,0,0,0,0,0,0.2611,0.2626,0.267,0.2665,0.2675,0.2703,0.2704,0.272,0.2732,0.2734,0.2718,0.272,0.2741,0.2721,0.2721,0.2694,0.2701,0.27,0.2707,0.2712,0.2662,0.2706,0.271,0.2666,0.2666,0.2666,0,0,0.2578,0.2612,0.2616,0.2652,0.2664,0.2684,0.2705,0.2706,0.2728,0.2719,0.2719,0.2734,0.2748,0.2749,0.2747,0.2722,0.2746,0.2719,0.2723,0.2669,0.2712,0.2715,0.2718,0.267,0.2669,0.2669,0,0,0.254,0.2557,0.2569,0.259,0.2621,0.2644,0.2653,0.268,0.2693,0.2695,0.2734,0.2748,0.2732,0.2757,0.277,0.2806,0.2795,0.2823,0.2774,0.2819,0.2821,0.2823,0.2899,0.2907,0.2807,0.2807,0.2807,0,0.2501,0.2537,0.2565,0.2587,0.2605,0.2638,0.2657,0.2673,0.2692,0.2704,0.2692,0.2734,0.2735,0.278,0.2794,0.2812,0.2844,0.2736,0.2822,0.2824,0.2825,0.2902,0.2911,0.2808,0.2808,0.2808,0.2808,0,0.2496,0.2516,0.2517,0.2577,0.2587,0.26,0.2644,0.2651,0.2667,0.2689,0.2716,0.2725,0.2744,0.2771,0.2773,0.2806,0.2834,0.284,0.2787,0.2829,0.291,0.2919,0.281,0.2809,0.2809,0.2809,0,0,0.2453,0.2509,0.2511,0.254,0.2589,0.2602,0.2629,0.2672,0.2701,0.2691,0.2722,0.2741,0.2733,0.2748,0.2776,0.2782,0.2844,0.2788,0.279,0.2837,0.2965,0.2839,0.2837,0.286,0.286,0.286,0.3038,0,0.2453,0.2494,0.2521,0.2553,0.2586,0.2615,0.264,0.2672,0.2698,0.2725,0.2737,0.2772,0.2739,0.2752,0.2752,0.2838,0.2856,0.2795,0.2936,0.294,0.28,0.2838,0.2613,0.2735,0.3047,0.3048,0.3049,0,0.2465,0.2498,0.2526,0.2575,0.2587,0.2593,0.2643,0.2671,0.272,0.2736,0.2744,0.277,0.2798,0.2759,0.2852,0.2816,0.2861,0.2905,0.2915,0.2773,0.2826,0.2735,0.2739,0.3064,0.3062,0.3061,0.306,0,0.246,0.2506,0.2529,0.2545,0.2596,0.2594,0.2612,0.2658,0.2693,0.2742,0.2772,0.2804,0.2842,0.2874,0.2947,0.2906,0.306,0.3043,0.2979,0.2976,0.2789,0.2765,0.3081,0.3081,0.308,0.308,0.3079,0,0.2479,0.2495,0.2517,0.2533,0.2546,0.2575,0.2592,0.2624,0.2676,0.2732,0.2762,0.2824,0.286,0.2955,0.2987,0.3015,0.3109,0.2949,0.2989,0.2797,0.2772,0.304,0.3033,0.3086,0.3085,0.3084,0.3082,0,0.2472,0.2493,0.2523,0.2549,0.2545,0.2548,0.2567,0.2598,0.265,0.2727,0.2746,0.2862,0.2978,0.3045,0.3158,0.3075,0.3128,0.3124,0.2902,0.2904,0.3006,0.2999,0.3033,0.303,0.3027,0.3024,0.3022,0,0.2476,0.2491,0.2512,0.2515,0.2513,0.2514,0.2523,0.2568,0.2614,0.2765,0.2815,0.2949,0.2969,0.3081,0.306,0.3083,0.317,0.284,0.266,0.2954,0.2991,0.2988,0.2985,0.2485,0.2478,0.2473,0.2469,0,0.249,0.2486,0.2506,0.2502,0.2499,0.2508,0.2524,0.2556,0.2645,0.2653,0.2733,0.2745,0.2873,0.2753,0.2783,0.2773,0.2793,0.2726,0.3132,0.2492,0.2438,0.2474,0.2489,0.2423,0.2428,0.2431,0.2434,0.2435,0.2492,0.2493,0.2505,0.249,0.2488,0.2493,0.2458,0.2464,0.2451,0.2424,0.2568,0.2462,0.2511,0.2384,0.2369,0.2384,0.2545,0.2387,0.2403,0.2424,0.2288,0.2227,0.2152,0.2155,0.2158,0.216,0.2162,0,0.2497,0.2493,0.249,0.2471,0.2417,0.2447,0.2449,0.2339,0.2221,0.2215,0.2123,0.1925,0.1837,0.1971,0.1889,0.1844,0.1839,0.1787,0.1766,0.1813,0.1854,0.1688,0.1395,0.1392,0.139,0.1388,0,0,0.2511,0.2485,0.2466,0.2379,0.2358,0.2253,0.2219,0.2021,0.1931,0.1707,0.1601,0.1656,0.1804,0.1531,0.1531,0.1447,0.1611,0.1395,0.2012,0.203,0.2068,0.2206,0.2003,0,0,0,0,0]},{"header":{"parameterUnit":"m.s-1","parameterCategory":2,"la1":30.2991,"la2":30.254,"lo1":-89.0895,"lo2":-89.0444,"dy":0.0017,"dx":0.0017,"nx":28,"ny":28,"refTime":"2024-05-15T21:00:00:Z","depth":"2","parameterNumber":3,"parameterNumberName":"V-component_of_CURRENTS"},"data":[0,0,0,0,0,0,0,0,0,0,0,0,0,0,0,0,0,0,0,0,0,0,0,0,0,0,0,0,0,0,0,0,0,0,0,0,0,0,0,0,0,0,0,0,0,0,0,0,0,0,0,0,0,0,0,0,0,0,0.041,0.0409,0,0.0345,0.0343,0.0342,0.0267,0.0267,0.0266,0.0265,0.0212,0.0211,0.0211,0,0,0,0,0,0,0,0,0,0,0,0,0,0.0397,0.0398,0.041,0.0409,0.0409,0.0345,0.0343,0.0342,0.0267,0.0267,0.0266,0.0265,0.0212,0.0212,0.0211,0,0,0,0,0,0,0,0,0,0,0,0,0,0.0371,0.0398,0.041,0.0367,0.0363,0.0345,0.0343,0.0342,0.0268,0.0267,0.0265,0.0264,0.0213,0.0212,0.0211,0.0227,0,0,0.0207,0.0207,0,0,0,0,0,0,0,0,0.0373,0.0371,0.0374,0.037,0.0365,0.0316,0.032,0.0305,0.0268,0.0299,0.0265,0.0264,0.0252,0.0247,0.0232,0.0224,0.0222,0.0207,0.0207,0.0206,0.0206,0,0,0,0,0,0,0,0.0375,0.0373,0.038,0.0373,0.0368,0.0326,0.0322,0.0316,0.028,0.0297,0.0292,0.0292,0.0249,0.0233,0.023,0.0221,0.0207,0.0206,0.0206,0.0205,0.0186,0.0186,0,0,0,0,0,0,0.0396,0.0375,0.0382,0.0378,0.0371,0.0328,0.0323,0.033,0.0279,0.0272,0.0293,0.0288,0.0235,0.0231,0.0228,0.0217,0.0206,0.0205,0.0205,0.0186,0.0186,0.0186,0,0,0,0,0,0,0.0396,0.0398,0.0385,0.0378,0.0374,0.0331,0.0339,0.0329,0.0307,0.0277,0.0268,0.028,0.0234,0.0229,0.0215,0.0215,0.0205,0.0204,0.0186,0.0186,0.0186,0.0213,0,0,0,0,0,0,0.0396,0.0398,0.0406,0.038,0.0375,0.0374,0.034,0.0329,0.0311,0.0305,0.0264,0.0258,0.0233,0.0216,0.0214,0.0214,0.0203,0.0186,0.0186,0.0186,0.0212,0.0214,0.0216,0,0,0,0,0,0.0396,0.041,0.0407,0.0407,0.0389,0.0375,0.0368,0.033,0.0312,0.0305,0.0275,0.0259,0.0216,0.0216,0.0212,0.0212,0.0186,0.0186,0.0186,0.0211,0.0213,0.0216,0,0,0,0,0,0,0.0398,0.0403,0.0399,0.0411,0.0397,0.0363,0.0354,0.0335,0.0305,0.0297,0.0264,0.0256,0.0243,0.0228,0.0229,0.0207,0.0197,0.0197,0.0217,0.0219,0.0221,0.0217,0.0202,0,0,0,0,0,0.0409,0.0425,0.0415,0.0423,0.0419,0.039,0.0378,0.0357,0.0332,0.0316,0.0285,0.0259,0.0244,0.0232,0.0214,0.0208,0.0183,0.0205,0.0207,0.0209,0.0203,0.0155,0.0152,0.0187,0.0187,0.0187,0,0,0.0409,0.0417,0.0422,0.0425,0.0409,0.0408,0.0378,0.0365,0.036,0.0319,0.0294,0.0268,0.0244,0.0229,0.0222,0.0215,0.019,0.0209,0.0211,0.0204,0.0155,0.0152,0.0148,0.0188,0.0188,0.0188,0,0,0.0417,0.0427,0.0439,0.0437,0.043,0.0418,0.0419,0.0388,0.0369,0.0351,0.032,0.0294,0.0264,0.0243,0.0232,0.024,0.0204,0.0233,0.0236,0.019,0.0187,0.0183,0.0166,0.016,0.0231,0.0231,0.0231,0,0.0415,0.0438,0.0436,0.0447,0.045,0.0427,0.0435,0.0417,0.0382,0.0374,0.0346,0.0285,0.0271,0.0251,0.0247,0.0244,0.0213,0.023,0.0192,0.0188,0.0184,0.0166,0.016,0.0232,0.0232,0.0232,0.0232,0,0.0428,0.0448,0.0454,0.0469,0.047,0.0474,0.0463,0.0452,0.0428,0.0404,0.0367,0.0322,0.0283,0.0276,0.0262,0.023,0.0218,0.0202,0.0185,0.0181,0.0164,0.0157,0.0234,0.0234,0.0233,0.0233,0,0,0.0421,0.0458,0.046,0.0482,0.0488,0.0493,0.0495,0.0491,0.0496,0.0431,0.0415,0.0365,0.0321,0.0305,0.0273,0.0229,0.0188,0.0199,0.0196,0.0181,0.0094,0.0107,0.01,0.0151,0.0149,0.0148,0.0101,0,0.0431,0.047,0.0481,0.0514,0.0536,0.0532,0.0542,0.0535,0.0515,0.0494,0.0426,0.0396,0.0339,0.0315,0.0258,0.0215,0.0166,0.0203,0.01,0.0098,0.0108,0.0091,0.0089,0.0047,0.0094,0.0093,0.0092,0,0.044,0.0473,0.0511,0.0563,0.057,0.058,0.0604,0.0609,0.0583,0.0562,0.0496,0.0443,0.0374,0.0321,0.0202,0.0221,0.0154,0.0106,0.0103,0.0096,0.0096,0.0054,0.0032,0.0079,0.008,0.0081,0.0082,0,0.0451,0.0497,0.0537,0.0551,0.0594,0.0607,0.0621,0.0622,0.0642,0.0596,0.0594,0.0484,0.0442,0.0319,0.0221,0.0199,0.0099,0.0063,0.0007,0.0008,-0.0022,-0.002,-0.0038,-0.0037,-0.0037,-0.0037,-0.0037,0,0.0472,0.0503,0.0546,0.0569,0.0619,0.0632,0.0674,0.0675,0.0681,0.0724,0.062,0.063,0.0433,0.0358,0.024,0.0117,0.0109,0.0002,-0.0012,-0.0008,-0.0005,-0.0004,0.0001,-0.0039,-0.0039,-0.0038,-0.0038,0,0.0482,0.0509,0.0563,0.0612,0.0629,0.0662,0.072,0.0758,0.0752,0.0801,0.0787,0.0725,0.0636,0.0462,0.0299,0.0167,0.0042,0.0001,0.0035,0.0025,-0.0027,-0.0021,-0.0092,-0.0093,-0.0093,-0.0093,-0.0093,0,0.049,0.0518,0.0591,0.0633,0.0656,0.0708,0.0758,0.0784,0.0841,0.0891,0.093,0.0853,0.0819,0.058,0.0338,0.0113,0.0095,-0.0028,-0.0082,-0.0031,-0.0038,-0.0031,-0.0024,-0.0104,-0.0104,-0.0104,-0.0104,0,0.0507,0.0532,0.0585,0.0668,0.0728,0.0808,0.0882,0.0942,0.1002,0.1047,0.1125,0.1097,0.0874,0.0635,0.032,0.0176,-0.0002,-0.0038,-0.0008,-0.008,-0.0044,-0.0049,-0.0042,-0.0105,-0.0105,-0.0105,-0.0105,-0.0105,0.0519,0.0561,0.0631,0.0717,0.0795,0.0906,0.0986,0.107,0.1171,0.1227,0.1232,0.1161,0.092,0.048,0.0262,0.0008,0.0008,-0.0109,-0.0109,-0.0108,-0.0092,-0.0057,-0.0117,-0.0117,-0.0116,-0.0116,-0.0116,0,0.0544,0.0598,0.0675,0.0789,0.0892,0.0925,0.1076,0.1141,0.1267,0.1271,0.1275,0.1016,0.0756,0.0506,0.0115,-0.0108,-0.0139,-0.0159,-0.0161,-0.0158,-0.0156,-0.0142,-0.0181,-0.0181,-0.0182,-0.0182,0,0,0.0559,0.0641,0.0691,0.0856,0.094,0.108,0.1179,0.1241,0.1269,0.1256,0.1183,0.1049,0.0782,0.0488,0.0213,0.0014,-0.0024,-0.0024,0.0046,0.0079,0.0084,-0.0111,-0.0084,0,0,0,0,0]}],[{"header":{"parameterUnit":"m.s-1","parameterCategory":2,"la1":30.2991,"la2":30.254,"lo1":-89.0895,"lo2":-89.0444,"dy":0.0017,"dx":0.0017,"nx":28,"ny":28,"refTime":"2024-05-15T21:00:00:Z","depth":"4","parameterNumber":2,"parameterNumberName":"U-component_of_CURRENTS"},"data":[0,0,0,0,0,0,0,0,0,0,0,0,0,0,0,0,0,0,0,0,0,0,0,0,0,0,0,0,0,0,0,0,0,0,0,0,0,0,0,0,0,0,0,0,0,0,0,0,0,0,0,0,0,0,0,0,0,0,0.0915,0.0917,0,0.0999,0.0999,0.0999,0.1033,0.1034,0.1034,0.1035,0.1105,0.1106,0.1107,0,0,0,0,0,0,0,0,0,0,0,0,0,0.0821,0.0822,0.0915,0.0917,0.0919,0.0999,0.0999,0.1,0.1033,0.1034,0.1034,0.1035,0.1104,0.1106,0.1107,0,0,0,0,0,0,0,0,0,0,0,0,0,0.0872,0.0822,0.0915,0.095,0.0955,0.0999,0.0999,0.1,0.1033,0.1034,0.1035,0.1035,0.1103,0.1106,0.1108,0.1107,0,0,0.1114,0.1115,0,0,0,0,0,0,0,0,0.0869,0.0875,0.0943,0.0948,0.0953,0.1013,0.0992,0.1037,0.1033,0.0996,0.1035,0.1036,0.1077,0.1081,0.1085,0.111,0.1113,0.1114,0.1116,0.1117,0.1117,0,0,0,0,0,0,0,0.0866,0.0872,0.0941,0.0945,0.0951,0.0975,0.0982,0.1,0.1025,0.0999,0.1004,0.1024,0.1078,0.1083,0.1087,0.1114,0.1114,0.1116,0.1118,0.1118,0.1229,0.1231,0,0,0,0,0,0,0.0867,0.0868,0.0938,0.0944,0.092,0.0977,0.0984,0.0987,0.1026,0.1035,0.1023,0.1026,0.1079,0.1085,0.109,0.1162,0.1117,0.1119,0.112,0.1228,0.123,0.1231,0,0,0,0,0,0,0.0864,0.0872,0.0935,0.0915,0.0926,0.0978,0.0981,0.0988,0.102,0.1046,0.1053,0.1052,0.108,0.1087,0.1137,0.1162,0.112,0.1121,0.1226,0.1228,0.123,0.1261,0,0,0,0,0,0,0.0861,0.087,0.088,0.0914,0.0927,0.0971,0.0981,0.099,0.1034,0.1038,0.1072,0.1077,0.1081,0.1133,0.1139,0.1164,0.1123,0.1223,0.1227,0.123,0.1258,0.1264,0.127,0,0,0,0,0,0.0857,0.0867,0.0879,0.0889,0.0935,0.0973,0.098,0.1016,0.1035,0.1046,0.1083,0.1078,0.1157,0.1137,0.1142,0.1169,0.1222,0.1226,0.1229,0.1255,0.1263,0.1269,0,0,0,0,0,0,0.0829,0.0873,0.0887,0.0908,0.0944,0.0981,0.1007,0.103,0.1067,0.1085,0.1098,0.1106,0.116,0.1164,0.1141,0.1212,0.1189,0.1194,0.1207,0.1214,0.122,0.1208,0.1125,0,0,0,0,0,0.0829,0.0847,0.089,0.0909,0.0931,0.0973,0.0998,0.1027,0.1064,0.1082,0.1104,0.1139,0.1175,0.1195,0.122,0.1257,0.1262,0.128,0.1286,0.1291,0.1287,0.1325,0.1334,0.1244,0.1244,0.1244,0,0,0.0832,0.0852,0.0869,0.0905,0.0938,0.0971,0.0988,0.1039,0.107,0.1084,0.1132,0.1162,0.1191,0.1236,0.126,0.1245,0.1322,0.1296,0.13,0.1293,0.133,0.1339,0.1346,0.1246,0.1246,0.1245,0,0,0.0833,0.0858,0.0875,0.0908,0.0965,0.099,0.101,0.1062,0.109,0.1143,0.1166,0.1211,0.1258,0.128,0.1299,0.1354,0.1354,0.137,0.1387,0.1425,0.1432,0.1438,0.146,0.1468,0.137,0.137,0.137,0,0.0822,0.0857,0.0888,0.0913,0.0953,0.1,0.1038,0.1068,0.1128,0.1156,0.1166,0.1259,0.1276,0.1338,0.1354,0.1365,0.1384,0.1355,0.1431,0.1437,0.1443,0.1464,0.1472,0.1372,0.1372,0.1372,0.1372,0,0.0855,0.0879,0.0896,0.0939,0.0979,0.1025,0.1078,0.1118,0.1162,0.1192,0.127,0.1306,0.1365,0.1375,0.1379,0.1438,0.1437,0.1434,0.1407,0.1454,0.1473,0.1481,0.1375,0.1374,0.1374,0.1373,0,0,0.0824,0.0898,0.0905,0.0935,0.1007,0.1042,0.1099,0.116,0.1207,0.1261,0.1325,0.1378,0.1412,0.1436,0.146,0.1475,0.1527,0.1472,0.1473,0.1483,0.1609,0.1499,0.1497,0.1544,0.1546,0.1547,0.1606,0,0.0834,0.0877,0.0926,0.0985,0.1018,0.1086,0.1131,0.1195,0.1251,0.1315,0.137,0.1441,0.1435,0.1486,0.1505,0.1513,0.1551,0.1511,0.1571,0.1572,0.146,0.1503,0.1552,0.1612,0.1614,0.1615,0.1616,0,0.086,0.0879,0.0934,0.101,0.1036,0.1084,0.1184,0.1239,0.1327,0.1373,0.1454,0.1505,0.1558,0.1556,0.1602,0.1581,0.161,0.1609,0.1612,0.15,0.1477,0.1557,0.1631,0.163,0.1629,0.1628,0.1627,0,0.0834,0.0897,0.094,0.0969,0.1052,0.1105,0.1169,0.1258,0.1314,0.1431,0.1483,0.1559,0.1622,0.1648,0.1653,0.1647,0.1686,0.1683,0.1621,0.1614,0.168,0.1673,0.1751,0.1751,0.1751,0.1751,0.1751,0,0.0829,0.0866,0.0934,0.0958,0.1021,0.1103,0.1189,0.126,0.1366,0.1424,0.1527,0.1581,0.1651,0.1685,0.168,0.1653,0.1723,0.1625,0.1623,0.1693,0.1687,0.1686,0.1678,0.1753,0.1753,0.1752,0.1752,0,0.0799,0.0844,0.0887,0.0971,0.1011,0.1063,0.1198,0.1245,0.136,0.1448,0.1497,0.1612,0.1648,0.1689,0.1728,0.1684,0.1668,0.1664,0.1729,0.1729,0.1571,0.1564,0.1595,0.1591,0.1588,0.1586,0.1584,0,0.0785,0.0802,0.0885,0.0912,0.0958,0.1048,0.1101,0.1229,0.128,0.1438,0.1464,0.1575,0.1632,0.1589,0.1637,0.1637,0.1636,0.1629,0.1601,0.156,0.1556,0.1553,0.155,0.1579,0.1579,0.1578,0.1577,0,0.0744,0.0781,0.0817,0.0867,0.0923,0.0982,0.1078,0.1104,0.1244,0.1348,0.141,0.1459,0.1509,0.1527,0.1552,0.1547,0.1611,0.1599,0.1605,0.158,0.1543,0.154,0.154,0.1567,0.1569,0.157,0.157,0,0.0716,0.0723,0.0774,0.0818,0.088,0.0913,0.0967,0.1033,0.1104,0.1272,0.1279,0.1387,0.1485,0.1483,0.1481,0.1478,0.1471,0.143,0.1445,0.1457,0.1382,0.1313,0.1266,0,0,0,0,0,0.0676,0.0688,0.0723,0.0761,0.0817,0.0858,0.0949,0.0999,0.1116,0.1125,0.1209,0.125,0.1297,0.1347,0.1319,0.1423,0.1469,0.1384,0.1427,0.1512,0.1524,0.1447,0,0,0,0,0,0,0.0649,0.0683,0.07,0.0715,0.073,0.0783,0.0833,0.0905,0.0924,0.1046,0.1072,0.1175,0.1227,0.1296,0.1294,0.1309,0.1312,0.145,0.1447,0.1506,0.1516,0.1525,0.145,0,0,0,0,0]},{"header":{"parameterUnit":"m.s-1","parameterCategory":2,"la1":30.2991,"la2":30.254,"lo1":-89.0895,"lo2":-89.0444,"dy":0.0017,"dx":0.0017,"nx":28,"ny":28,"refTime":"2024-05-15T21:00:00:Z","depth":"4","parameterNumber":3,"parameterNumberName":"V-component_of_CURRENTS"},"data":[0,0,0,0,0,0,0,0,0,0,0,0,0,0,0,0,0,0,0,0,0,0,0,0,0,0,0,0,0,0,0,0,0,0,0,0,0,0,0,0,0,0,0,0,0,0,0,0,0,0,0,0,0,0,0,0,0,0,0.0302,0.0302,0,0.0283,0.0282,0.0282,0.0274,0.0274,0.0274,0.0275,0.0279,0.0279,0.0279,0,0,0,0,0,0,0,0,0,0,0,0,0,0.029,0.0291,0.0302,0.0302,0.0302,0.0283,0.0282,0.0282,0.0274,0.0274,0.0274,0.0275,0.0279,0.0279,0.0279,0,0,0,0,0,0,0,0,0,0,0,0,0,0.0285,0.0291,0.0302,0.0297,0.0296,0.0283,0.0282,0.0282,0.0274,0.0274,0.0274,0.0275,0.0279,0.0279,0.0279,0.0274,0,0,0.0279,0.0279,0,0,0,0,0,0,0,0,0.0285,0.0285,0.0298,0.0297,0.0296,0.0282,0.028,0.0281,0.0274,0.0281,0.0275,0.0275,0.0283,0.0283,0.0276,0.0274,0.0274,0.0279,0.0279,0.0279,0.0279,0,0,0,0,0,0,0,0.0285,0.0285,0.0293,0.0298,0.0297,0.0281,0.028,0.0279,0.028,0.028,0.028,0.028,0.0283,0.0276,0.0276,0.0274,0.0279,0.0279,0.0279,0.0279,0.0287,0.0287,0,0,0,0,0,0,0.0292,0.0286,0.0294,0.0293,0.0293,0.0281,0.0281,0.0285,0.028,0.0279,0.028,0.028,0.0276,0.0276,0.0277,0.0297,0.0279,0.0279,0.0279,0.0286,0.0287,0.0287,0,0,0,0,0,0,0.0292,0.0294,0.0295,0.029,0.0289,0.0281,0.0287,0.0285,0.0286,0.0279,0.0279,0.0284,0.0276,0.0277,0.0282,0.0297,0.0279,0.0279,0.0286,0.0287,0.0287,0.0322,0,0,0,0,0,0,0.0292,0.0294,0.0301,0.029,0.0289,0.0298,0.0286,0.0284,0.0286,0.0285,0.0282,0.0282,0.0277,0.0282,0.0282,0.0296,0.0279,0.0286,0.0286,0.0287,0.032,0.0323,0.0326,0,0,0,0,0,0.0292,0.0304,0.0302,0.0303,0.03,0.0298,0.0296,0.029,0.0286,0.0291,0.0285,0.0283,0.0285,0.0282,0.0282,0.0297,0.0286,0.0286,0.0287,0.0319,0.0323,0.0326,0,0,0,0,0,0,0.0304,0.0304,0.0302,0.0314,0.0311,0.0298,0.0304,0.0295,0.0293,0.0296,0.0285,0.0285,0.0295,0.0289,0.0286,0.0299,0.0285,0.0286,0.031,0.0313,0.0316,0.0319,0.0279,0,0,0,0,0,0.0311,0.0319,0.0314,0.0323,0.0326,0.0315,0.0314,0.031,0.0305,0.0304,0.03,0.0296,0.0295,0.0299,0.0296,0.0304,0.0281,0.0313,0.0316,0.0318,0.032,0.0295,0.0296,0.0289,0.0289,0.0289,0,0,0.0318,0.0318,0.0324,0.0326,0.0325,0.0332,0.0315,0.0321,0.0327,0.0306,0.0316,0.0307,0.0298,0.0307,0.0311,0.0306,0.0307,0.0319,0.0321,0.0321,0.0296,0.0296,0.0297,0.0289,0.0289,0.0289,0,0,0.0337,0.034,0.0353,0.0355,0.0357,0.035,0.0355,0.0348,0.0348,0.0352,0.0338,0.0333,0.0337,0.0328,0.0325,0.034,0.032,0.0346,0.0366,0.0343,0.0343,0.0343,0.0309,0.0305,0.035,0.035,0.035,0,0.0346,0.0361,0.0357,0.037,0.0374,0.0361,0.0376,0.0374,0.0368,0.0369,0.0364,0.0355,0.0345,0.0348,0.0353,0.0347,0.0328,0.0356,0.0347,0.0346,0.0345,0.031,0.0306,0.0351,0.0351,0.0351,0.0351,0,0.0374,0.0387,0.0397,0.0409,0.0412,0.0423,0.042,0.0425,0.0421,0.0413,0.0416,0.0397,0.0391,0.0387,0.0376,0.0372,0.0357,0.0351,0.0339,0.0348,0.031,0.0305,0.0354,0.0353,0.0353,0.0352,0,0,0.0391,0.0412,0.0416,0.0429,0.0434,0.0441,0.0455,0.046,0.0466,0.0461,0.0465,0.0454,0.0439,0.0434,0.0416,0.0395,0.0367,0.0376,0.0374,0.0343,0.0309,0.0266,0.0256,0.0364,0.0363,0.0363,0.0282,0,0.0414,0.0445,0.0448,0.0477,0.0492,0.0489,0.0502,0.0505,0.0498,0.0499,0.0481,0.048,0.0459,0.0458,0.0434,0.0381,0.0357,0.0389,0.0303,0.03,0.0262,0.025,0.0361,0.0278,0.0277,0.0276,0.0275,0,0.0438,0.0456,0.0488,0.0512,0.052,0.0539,0.0553,0.0562,0.0557,0.0551,0.0544,0.0524,0.0496,0.0479,0.0399,0.0422,0.0372,0.0329,0.0325,0.027,0.0248,0.0267,0.0266,0.0267,0.0267,0.0268,0.0269,0,0.0447,0.0483,0.0509,0.0518,0.0544,0.0566,0.0583,0.0584,0.0595,0.0588,0.0588,0.0551,0.0535,0.0471,0.0381,0.0393,0.0281,0.0285,0.0199,0.0195,0.0244,0.0244,0.0232,0.0232,0.0233,0.0233,0.0233,0,0.046,0.0485,0.0524,0.054,0.0581,0.0593,0.0629,0.0634,0.0642,0.0652,0.0623,0.0609,0.0534,0.0463,0.0384,0.0264,0.0282,0.0194,0.017,0.0259,0.0263,0.0239,0.0241,0.023,0.0231,0.0231,0.0232,0,0.0461,0.0483,0.0519,0.0564,0.0587,0.0619,0.0673,0.069,0.0694,0.0705,0.0708,0.0652,0.055,0.0455,0.0332,0.0265,0.0156,0.0114,0.0202,0.0186,0.0086,0.0091,0.0012,0.001,0.0008,0.0006,0.0005,0,0.0463,0.0481,0.0541,0.0569,0.0597,0.0651,0.0686,0.0716,0.0731,0.0721,0.0721,0.0641,0.0588,0.0377,0.0274,0.0107,0.0092,0.0039,0.0076,0.0078,0.0063,0.0071,0.0078,0.0002,0.0002,0.0001,0.0001,0,0.0465,0.0487,0.0518,0.0577,0.0626,0.0677,0.0732,0.0746,0.0768,0.0777,0.072,0.0622,0.0501,0.0354,0.0222,0.0109,0.0073,0.002,0.0023,0.0058,0.0065,0.0054,0.0063,-0.0006,-0.0005,-0.0004,-0.0004,0,0.0469,0.0485,0.0528,0.0578,0.0641,0.0685,0.0715,0.0735,0.0754,0.0748,0.0721,0.0603,0.0544,0.0352,0.0227,0.0107,0.0088,0.0066,0.0067,0.0073,0.0115,0.0135,0.0057,0,0,0,0,0,0.0468,0.0483,0.0526,0.0577,0.0639,0.0675,0.0735,0.0756,0.0783,0.0743,0.0736,0.062,0.043,0.0347,0.0218,0.019,0.0065,0.0035,0.004,-0.0042,-0.0035,0.0,0,0,0,0,0,0,0.0462,0.0501,0.0517,0.0574,0.0606,0.0671,0.0709,0.0724,0.0703,0.071,0.0607,0.0581,0.0392,0.0497,0.021,0.0175,0.0159,-0.0045,-0.0048,-0.0046,-0.0039,-0.0033,0.0005,0,0,0,0,0]}]]